STARLINK-34703, 65387

Orbit data source: Space-Track

STARLINK-34703, 65387 is a payload satellite owned by SpaceX/Seattle (US) in SSO that was launched on Sat, 30 Aug 2025 UTC via an FALCON 9 launch vehicle from the Air Force Western Test Range (AFWTR). Payload-class satellites include a variety of spacecraft equipped with specific instruments for various scientific and technological missions. These include communications satellites like Starlink; space stations such as the ISS; scientific satellites like the Hubble; Earth observation satellites from companies like Planet Labs, Umbra, and HawkEye 360; GPS; miniature CubeSats for education and research; and military/defense satellites.

Loading next visibility...
Identifier
65387, 2025-191J
Orbit
SSO
Country
Flag of USUS
Related business
Manufacturer
SpaceX/Seattle
Mission
Operational Commercial Communications
Bus & Motor
STARLINK V2MO, Unknown motor
Mass
575 kg wet, ~530 kg dry
Launch date (UTC)
2025-08-30 (7 months ago)
Launch vehicle
FALCON 9
Launch site
Air Force Western Test Range (AFWTR)
Object type
Payload
Rocket body
Debris
Shape & HBR
Box + 2 Pan, 17.7 m
Radar Cross Section
36.964 m², Large (>1 m²)

Expand to show TLE details & history
Last TLE update: 13 hours ago

TLE from 13 hours ago
0 STARLINK-34703
1 65387U 25191J   26093.63092416  .00003787  00000-0  26644-3 0  9998
2 65387  97.6029 326.1292 0002699  91.8038 268.3498 15.05656906 34026
Epoch: 2026-04-03T15:08Z
TLE epoch observation values (Epoch: 2026-04-03T15:08:31.847Z)
Latitude
-0.00001°
Longitude
-92.96578°
Altitude
552.61 km
Speed
7.585 km/s
True Right ascension
21h 44m 31s
True Declination
0° 00' 00"
Sunlit
Object was in daylight at epoch
Visualization orbit readout
Latitude
Unknown
Longitude
Unknown
Altitude
Unknown
Speed
Unknown
Apparent Right ascension
Unknown
Apparent Declination
Unknown
Sunlit
N/A
Visualization observer readout
Local Sidereal Time
09:40:07
Azimuth
Unknown
Elevation
Unknown
Doppler factor
Unknown
Orbital elements
Apogee altitude
548.352 km
Perigee altitude
544.614 km
Semi-major axis
6,924.62 km
Eccentricity
0.00027
Inclination
97.6029°
RAAN
326.1292°
Arg. of periapsis
91.8038°
True anomaly
268.31888°
Mean anomaly
268.3498°
Eccentric anomaly
268.33434°
Mean motion
3.7666 °/min
Orbital period
95.58 mins
BSTAR
0.00026644
Loading maneuver chart data...
Computing Atmospheric mass density...
Loading historical data...
Loading historical data...
Loading historical data...
Loading historical data...
Loading historical data...
Loading historical data...
Loading historical data...

Documentation

Showing up to 5 results
|